www.pogodaiklimat.ru

Погода и климат >> Архив погоды >> Ирландия >> Маяк Roches Point


ПОГОДА на Маяке Roches Point

  • Прогноз погоды на Маяке Roches Point
  • Монитор погоды на Маяке Roches Point

АРХИВ ПОГОДЫ на Маяке Roches Point

Время (UTC), дата Ветер
(напр.,м/с)
 
Видим.   Явления Облачность Т
(С)
Тd
(С)
f
(%)
Тe
(С)
Тes
(С)
Комфортность P
(гПа)
Po
(гПа)
Тmin
(С)
Tmax
(С)
R
(мм)
R24
(мм)
S
(см)
07 14.04 ЮВ 13
{20}
4100 м дождь н/о +7.2 +6.2 93 +1 +1 1016.4 1011.4
08 14.04 ЮВ 16
{21}
6000 м слаб. дождь н/о +7.3 +5.2 87 +1 +1 1016.2 1011.1
09 14.04 ЮВ 14
{22}
3000 м дождь н/о +6.8 +5.7 93 0 0 1017.5 1012.4
10 14.04 ЮВ 15
{19}
4000 м слаб. дождь н/о +6.8 +5.9 94 -0 -0 1017.3 1012.2
11 14.04 ЮВ 14
{19}
4100 м слаб. дождь н/о +6.7 +5.8 94 -0 -0 1017.8 1012.8
12 14.04 ЮВ 13
{19}
6000 м слаб. дождь н/о +6.8 +5.7 93 0 0 1018.2 1013.1 9
13 14.04 ЮВ 12
{18}
6000 м слаб. дождь н/о +7.0 +5.9 93 +1 +1 1018.3 1013.2
14 14.04 ЮВ 13
{18}
7000 м слаб. ливневой дождь н/о +6.7 +5.5 92 0 0 1018.0 1012.9
15 14.04 ЮВ 12
{18}
5000 м слаб. ливневой дождь н/о +6.9 +5.9 93 +1 +1 1017.6 1012.6
16 14.04 ЮВ 11 4800 м слаб. ливневой дождь н/о +6.6 +5.6 93 0 0 1017.3 1012.2
17 14.04 ЮВ 12 3600 м слаб. дождь н/о +6.5 +5.5 93 0 0 1017.2 1012.1
18 14.04 ЮВ 10 3500 м слаб. дождь н/о +6.4 +5.2 92 0 0 1017.1 1012.1 +7.4 10
19 14.04 ЮВ 9 11 км слаб. дождь н/о +6.4 +4.2 86 +1 +1 1017.1 1012.0
20 14.04 ЮВ 10 8000 м слаб. дождь н/о +6.4 +4.2 86 0 0 1016.8 1011.7
21 14.04 ЮВ 11 9000 м слаб. дождь н/о +6.5 +4.0 84 0 0 1016.5 1011.4
22 14.04 ЮВ 13
{17}
8000 м слаб. дождь н/о +6.3 +3.9 85 -0 -0 1016.1 1011.0
23 14.04 В 12
{18}
8000 м слаб. дождь н/о +6.4 +4.5 88 -0 -0 1014.7 1009.6
00 15.04 В 11
{18}
6000 м слаб. дождь н/о +6.7 +5.0 89 +1 +1 1013.8 1008.8 6
01 15.04 ЮВ 12
{17}
3100 м дождь н/о +6.9 +6.0 94 +1 +1 1012.9 1007.9
02 15.04 В 12
{18}
2400 м дождь н/о +7.4 +6.5 94 +1 +1 1011.8 1006.8
03 15.04 ЮВ 11
{19}
2000 м дождь н/о +7.6 +6.9 95 +2 +2 1010.9 1005.9
04 15.04 ЮВ 11
{18}
2400 м дождь н/о +7.6 +6.7 94 +2 +2 1010.1 1005.1
05 15.04 ЮВ 12 2500 м дождь н/о +7.6 +6.8 95 +2 +2 1008.8 1003.8
06 15.04 ЮВ 10 2800 м дождь н/о +7.9 +7.1 95 +2 +2 1008.1 1003.1 +6.1 34
07 15.04 ЮВ 16
{22}
3800 м слаб. дождь н/о +7.9 +7.1 95 +1 +1 1007.3 1002.3
08 15.04 ЮВ 16
{22}
4800 м слаб. дождь н/о +8.1 +7.3 95 +2 +2 1006.1 1001.1
09 15.04 ЮВ 17
{26}
7000 м слаб. ливневой дождь н/о +8.5 +7.0 90 +2 +2 1005.4 1000.4
10 15.04 ЮВ 18
{25}
5000 м слаб. ливневой дождь н/о +8.0 +6.7 91 +1 +1 1005.3 1000.3
11 15.04 ЮВ 17
{25}
3100 м дождь н/о +7.8 +6.9 94 +1 +1 1005.0 1000.1
12 15.04 ЮВ 17
{23}
4300 м слаб. дождь н/о +8.1 +6.9 92 +1 +1 1004.6 999.6 10
13 15.04 ЮВ 17
{25}
4500 м слаб. дождь н/о +8.0 +6.7 91 +1 +1 1004.4 999.4
14 15.04 ЮВ 16
{24}
2700 м дождь н/о +8.0 +6.9 93 +1 +1 1004.5 999.5
15 15.04 ЮВ 16
{23}
4900 м слаб. дождь н/о +8.1 +7.0 93 +2 +2 1004.3 999.3
16 15.04 ЮВ 14
{22}
2600 м дождь н/о +8.0 +7.2 95 +2 +2 1004.5 999.6
17 15.04 ЮВ 12
{20}
2700 м слаб. дождь н/о +8.3 +7.7 96 +3 +3 1005.5 1000.5
18 15.04 ЮВ 13
{20}
5000 м слаб. дождь н/о +8.6 +7.8 95 +3 +3 1005.6 1000.7 +8.6 22
19 15.04 ЮВ 10 8000 м в посл. час морось н/о +9.1 +8.3 95 +4 +4 1006.5 1001.6
20 15.04 ЮВ 8 7000 м дымка н/о +9.2 +8.4 95 +5 +5 1007.7 1002.7
21 15.04 Ю 6 7000 м дымка н/о +9.2 +8.3 94 +5 +5 1008.8 1003.8
22 15.04 Ю 3 5000 м дымка н/о +9.4 +8.7 95 +7 +7 1009.8 1004.8
23 15.04 Ю 2 2700 м дымка н/о +8.9 +8.2 95 +7 +7 1010.4 1005.4
00 16.04 ЮВ 2 2300 м дымка н/о +8.8 +8.3 97 +7 +7 1011.0 1006.0 0.0
01 16.04 Ю 2 900 м туман ?/? +8.5 +8.0 97 +6 +6 1011.2 1006.2
02 16.04 ЮВ 1 200 м туман ?/? +7.9 +7.5 97 +7 +7 1011.6 1006.6
03 16.04 штиль 0 300 м туман ?/? +8.4 +8.0 97 +7 +7 1012.1 1007.1
04 16.04 СЗ 2 100 м туман ?/? +8.2 +7.8 97 +6 +6 1012.4 1007.4
05 16.04 СЗ 2 100 м туман ?/? +7.1 +6.7 97 +5 +5 1012.9 1007.9
06 16.04 С 1 100 м туман ?/? +6.8 +6.5 98 +6 +6 1013.4 1008.3 +6.7 0.1
07 16.04 штиль 0 200 м туман ?/? +7.3 +7.1 99 +6 +6 1014.0 1009.0
08 16.04 ЮВ 1 600 м туман ?/? +7.5 +7.3 99 +6 +6 1014.7 1009.7
09 16.04 ЮВ 2 1800 м в посл. час туман ?/? +7.7 +7.5 99 +5 +5 1015.0 1010.0
10 16.04 В 3 6000 м дымка н/о +8.8 +8.6 99 +6 +6 1015.3 1010.3
11 16.04 В 4 16 км н/о +9.7 +9.1 96 +7 +7 1015.3 1010.3
12 16.04 ЮВ 5 12 км {туман, дымка} н/о +9.6 +8.6 93 +6 +6 1015.7 1010.7 0.1
13 16.04 В 5 13 км н/о +10.6 +9.1 90 +8 +8 1015.8 1010.8
14 16.04 В 5 13 км н/о +10.8 +9.1 89 +8 +8 1015.6 1010.6
15 16.04 В 5 12 км н/о +10.9 +9.2 89 +8 +8 1015.6 1010.6
16 16.04 В 4 11 км н/о +10.8 +9.5 92 +8 +8 1015.4 1010.4
17 16.04 В 5 11 км н/о +10.8 +9.4 91 +8 +8 1015.3 1010.3
18 16.04 В 4 11 км н/о +10.3 +9.3 94 +8 +8 1015.5 1010.6 +11.3 0.1
19 16.04 ЮВ 4 12 км н/о +10.1 +9.2 94 +7 +7 1015.8 1010.8
20 16.04 В 5 12 км н/о +9.8 +9.0 95 +6 +6 1016.3 1011.3
21 16.04 ЮВ 5 13 км н/о +9.9 +9.1 95 +7 +7 1016.5 1011.5
22 16.04 ЮВ 6 13 км н/о +9.9 +9.1 95 +6 +6 1016.7 1011.7
23 16.04 ЮВ 8 14 км н/о +9.8 +8.9 94 +6 +6 1016.6 1011.6
00 17.04 ЮВ 6 13 км н/о +9.8 +9.0 95 +6 +6 1016.5 1011.5
01 17.04 ЮВ 5 12 км н/о +9.8 +8.9 94 +6 +6 1016.2 1011.2
02 17.04 ЮВ 6 13 км н/о +9.8 +9.0 95 +6 +6 1015.9 1010.9
03 17.04 ЮВ 6 15 км н/о +9.7 +8.8 94 +6 +6 1015.8 1010.8
04 17.04 В 5 13 км н/о +9.7 +8.8 94 +6 +6 1015.6 1010.6
05 17.04 В 5 9000 м дымка н/о +9.8 +9.0 95 +6 +6 1015.9 1010.9
06 17.04 В 6 11 км {дымка} н/о +9.8 +9.0 95 +6 +6 1016.3 1011.3 +9.6
07 17.04 В 7 12 км н/о +9.9 +9.1 95 +6 +6 1016.5 1011.5
08 17.04 В 7 13 км н/о +9.8 +8.7 93 +6 +6 1016.9 1011.9
09 17.04 В 7 13 км н/о +9.9 +8.8 93 +6 +6 1017.5 1012.5
10 17.04 В 7 14 км н/о +10.2 +9.1 93 +6 +6 1017.7 1012.7
11 17.04 В 7 14 км н/о +10.8 +9.6 92 +7 +7 1017.7 1012.7
12 17.04 В 8 15 км н/о +11.8 +9.9 88 +8 +8 1017.4 1012.4
13 17.04 В 8 14 км н/о +11.5 +9.6 88 +8 +8 1017.5 1012.5
14 17.04 В 8 14 км н/о +11.2 +9.4 89 +8 +8 1017.1 1012.1
15 17.04 В 6 9000 м дымка н/о +11.0 +9.0 87 +8 +8 1016.8 1011.8
16 17.04 В 6 9000 м дымка н/о +11.1 +8.9 86 +8 +8 1016.7 1011.8
17 17.04 В 8 7000 м дымка н/о +11.4 +8.7 83 +8 +8 1017.0 1012.0
18 17.04 В 7 7000 м дымка н/о +10.7 +8.2 85 +7 +7 1016.8 1011.8 +12.0
19 17.04 В 7 7000 м дымка н/о +10.3 +8.0 86 +7 +7 1017.1 1012.1
20 17.04 В 7 7000 м дымка н/о +10.4 +8.0 85 +7 +7 1017.9 1012.9
21 17.04 В 7 10 км {дымка} н/о +10.1 +7.3 83 +6 +6 1018.1 1013.1
22 17.04 В 7 9000 м дымка н/о +9.8 +7.2 84 +6 +6 1018.2 1013.2
23 17.04 В 8 9000 м дымка н/о +9.9 +7.0 82 +6 +6 1018.3 1013.3
00 18.04 В 8 7000 м дымка н/о +9.9 +7.2 83 +6 +6 1018.4 1013.4
01 18.04 В 7 6000 м дымка н/о +9.8 +7.5 86 +6 +6 1018.1 1013.1
02 18.04 В 7 5000 м дымка н/о +9.9 +7.8 87 +6 +6 1017.9 1012.9
03 18.04 В 7 4900 м дымка н/о +9.8 +8.0 89 +6 +6 1017.8 1012.8
04 18.04 В 7 5000 м дымка н/о +10.0 +8.0 87 +6 +6 1017.8 1012.7
05 18.04 В 7 5000 м дымка н/о +10.0 +8.0 87 +6 +6 1017.7 1012.7
06 18.04 В 7 5000 м дымка н/о +9.9 +7.8 87 +6 +6 1018.4 1013.4 +9.6
07 18.04 В 7 6000 м дымка н/о +10.8 +8.3 85 +7 +7 1019.2 1014.2
08 18.04 В 8 6000 м дымка н/о +11.2 +8.3 82 +8 +8 1019.7 1014.7
09 18.04 В 8 7000 м дымка н/о +11.9 +8.9 82 +9 +9 1020.2 1015.2
10 18.04 В 9 9000 м дымка н/о +12.6 +9.0 79 +9 +9 1020.5 1015.5
11 18.04 В 9 8000 м дымка н/о +13.2 +9.7 79 +10 +10 1020.8 1015.9
12 18.04 В 10 7000 м дымка н/о +13.5 +9.6 77 +10 +10 1020.9 1015.9
13 18.04 В 10 8000 м дымка н/о +13.9 +9.7 76 +11 +11 1020.9 1016.0
14 18.04 В 10 8000 м дымка н/о +14.0 +9.4 74 +11 +11 1021.3 1016.3
15 18.04 В 10 8000 м дымка н/о +14.1 +9.4 73 +11 +11 1021.3 1016.4
16 18.04 В 10 8000 м дымка н/о +14.4 +9.0 70 +12 +12 1021.3 1016.4
17 18.04 В 9 8000 м дымка н/о +14.2 +8.7 69 +12 +12 1021.7 1016.8
18 18.04 В 9 8000 м дымка н/о +13.5 +8.6 72 +11 +11 1022.1 1017.1 +14.5
19 18.04 В 9 8000 м дымка н/о +13.0 +8.3 73 +10 +10 1022.7 1017.7
20 18.04 В 7 7000 м дымка н/о +12.1 +8.3 78 +9 +9 1023.2 1018.2
21 18.04 В 6 7000 м дымка н/о +11.7 +8.5 81 +9 +9 1023.9 1018.9
22 18.04 В 8 8000 м дымка н/о +12.7 +8.7 77 +10 +10 1024.1 1019.1
23 18.04 В 7 8000 м дымка н/о +12.3 +8.8 79 +9 +9 1024.7 1019.7
00 19.04 В 6 7000 м дымка н/о +12.2 +8.7 79 +10 +10 1025.1 1020.1
01 19.04 В 6 7000 м дымка н/о +12.3 +8.6 78 +10 +10 1025.3 1020.3
02 19.04 В 6 7000 м дымка н/о +11.8 +8.3 79 +9 +9 1025.3 1020.3
03 19.04 В 7 7000 м дымка н/о +11.8 +8.5 80 +9 +9 1025.0 1019.9
04 19.04 В 6 7000 м дымка н/о +11.5 +8.5 82 +9 +9 1025.3 1020.3
05 19.04 В 7 7000 м дымка н/о +11.7 +8.7 82 +9 +9 1025.2 1020.2
06 19.04 В 7 7000 м дымка н/о +11.5 +8.8 83 +8 +8 1025.9 1020.9 +11.3
07 19.04 В 6 7000 м дымка н/о +12.1 +9.3 83 +9 +9 1026.2 1021.2
08 19.04 В 6 9000 м дымка н/о +13.3 +9.7 79 +11 +11 1026.8 1021.8
09 19.04 В 5 10 км н/о +14.3 +9.7 74 +13 +13 1027.6 1022.6
10 19.04 ЮВ 5 10 км н/о +14.2 +8.9 70 +13 +13 1027.9 1023.0
11 19.04 В 3 10 км н/о +14.5 +8.5 67 +14 +14 1028.6 1023.6
12 19.04 В 4 10 км н/о +15.1 +8.7 66 +14 +14 1028.5 1023.6
13 19.04 В 5 10 км н/о +14.3 +8.3 67 +13 +13 1028.8 1023.8
14 19.04 ЮВ 2 11 км н/о +14.9 +8.7 66 +15 +15 1029.5 1024.5
15 19.04 ЮВ 4 11 км н/о +14.6 +8.9 69 +13 +13 1028.9 1024.0
16 19.04 ЮВ 3 11 км н/о +14.6 +8.7 68 +14 +14 1029.1 1024.2
17 19.04 В 4 10 км н/о +14.1 +9.4 73 +13 +13 1029.2 1024.2
18 19.04 В 3 11 км н/о +13.4 +9.1 75 +12 +12 1029.6 1024.6 +15.3
19 19.04 В 4 10 км н/о +12.2 +8.5 78 +10 +10 1029.6 1024.6
20 19.04 СВ 2 8000 м дымка н/о +11.0 +8.3 83 +10 +10 1030.8 1025.7
21 19.04 С 1 10 км {дымка} н/о +11.2 +8.6 84 +11 +11 1031.3 1026.3
22 19.04 С 1 8000 м дымка н/о +10.6 +8.2 85 +10 +10 1031.6 1026.5
23 19.04 С 1 9000 м дымка н/о +10.5 +8.2 86 +10 +10 1031.5 1026.5
00 20.04 С 2 5000 м дымка н/о +9.9 +8.6 92 +8 +8 1031.3 1026.2
01 20.04 В 1 11 км н/о +10.4 +7.8 84 +10 +10 1031.2 1026.1
02 20.04 ЮВ 1 5000 м дымка н/о +9.8 +8.1 89 +9 +9 1031.1 1026.0
03 20.04 С 1 3500 м дымка н/о +9.0 +7.8 92 +8 +8 1031.3 1026.2
04 20.04 С 2 2500 м дымка н/о +8.7 +8.0 95 +7 +7 1031.2 1026.1
05 20.04 С 2 2300 м дымка н/о +8.3 +7.6 95 +6 +6 1031.3 1026.2
06 20.04 С 2 2500 м дымка н/о +8.2 +7.5 95 +6 +6 1031.5 1026.4 +8.0
07 20.04 С 2 2600 м дымка н/о +8.8 +8.2 96 +7 +7 1031.6 1026.5
08 20.04 С 2 3900 м дымка н/о +9.8 +8.9 94 +8 +8 1031.5 1026.5
09 20.04 С 1 5000 м дымка н/о +11.5 +9.4 87 +11 +11 1031.4 1026.3
10 20.04 штиль 0 9000 м дымка н/о +14.0 +9.8 76 +14 +14 1031.1 1026.1
11 20.04 ЮВ 3 10 км н/о +14.4 +9.6 73 +14 +14 1030.9 1025.9
12 20.04 Ю 2 10 км н/о +15.2 +10.4 73 +15 +15 1030.7 1025.7
13 20.04 ЮВ 4 12 км н/о +14.8 +8.6 66 +14 +14 1030.5 1025.5
14 20.04 ЮВ 3 11 км н/о +14.4 +9.0 70 +14 +14 1030.2 1025.3
15 20.04 Ю 2 11 км н/о +14.5 +9.5 72 +14 +14 1029.8 1024.9
16 20.04 Ю 2 11 км н/о +14.7 +8.9 68 +14 +14 1029.2 1024.2
17 20.04 ЮВ 2 10 км н/о +14.1 +8.8 70 +14 +14 1028.8 1023.8
18 20.04 ЮВ 3 11 км н/о +13.7 +8.5 71 +13 +13 1028.4 1023.4 +15.7
19 20.04 ЮВ 2 10 км н/о +13.1 +8.1 72 +12 +12 1028.1 1023.1
20 20.04 ЮВ 2 9000 м дымка н/о +12.3 +8.7 79 +11 +11 1027.9 1022.9
21 20.04 Ю 2 7000 м дымка н/о +11.7 +9.5 86 +11 +11 1027.8 1022.8
22 20.04 Ю 2 11 км н/о +12.2 +7.7 74 +11 +11 1027.3 1022.2
23 20.04 Ю 1 9000 м дымка н/о +12.0 +7.9 76 +12 +12 1026.8 1021.8
00 21.04 Ю 2 9000 м дымка н/о +11.4 +8.0 80 +10 +10 1026.3 1021.2
01 21.04 ЮВ 2 7000 м дымка н/о +10.5 +8.1 85 +9 +9 1025.6 1020.5
02 21.04 СЗ 1 4800 м дымка н/о +9.7 +8.1 90 +9 +9 1024.8 1019.7
03 21.04 В 1 6000 м дымка н/о +9.5 +7.7 89 +9 +9 1024.0 1019.0
04 21.04 Ю 2 3100 м дымка н/о +9.4 +8.4 93 +8 +8 1023.3 1018.3
05 21.04 Ю 2 3900 м дымка н/о +8.6 +7.7 94 +7 +7 1022.6 1017.6
06 21.04 Ю 5 100 м туман {дымка} ?/? +8.5 +8.1 97 +5 +5 1022.4 1017.4 +8.3
07 21.04 З 3 300 м туман ?/? +8.2 +7.8 97 +5 +5 1022.2 1017.1

 

Местоположение метеостанции Маяк Roches Point (Ирландия): широта 51.80 долгота -8.25 высота над уровнем моря 41 м.

В архиве по умолчанию представлена погода на Маяке Roches Point за последнюю неделю. Архивные данные за месяц целиком и за предыдущие месяцы, начиная с января 2011 года, Вы можете получить, выбрав интересующий диапазон дат из раскрывающегося списка и нажав кнопку "Ввод!".


*Определитесь, кто Вы:
робот инопланетянин человек

Внимание! Время в таблицах - всемирное. Для получения местного времени необходимо прибавить поправку, которая равна 0 ч.

Смотрите также архив погоды в соседних городах и на ближайших метеорологических станциях:

Погода в Аэропорту Корка (Ирландия) (17 км)
Погода на Острове Шеркин (Ирландия) (89 км)
Погода в Аэропорту Шэннон (Ирландия) (109 км)
Погода в Замке Джонстаун (Ирландия) (132 км)
Погода в Гортине (Ирландия) (138 км)
Погода в Обсерватории Валентия (Ирландия) (138 км)
Погода в Ок Парк (Ирландия) (149 км)
Погода в Обсерватории Мейс-Хед (Ирландия) (203 км)
Погода в Муллингаре (Ирландия) (203 км)
Погода на Аэродроме Кейсмент (Ирландия) (208 км)

Пояснения к столбцам:

Ветер - указаны скорость ветра в м/с - средняя за 10 мин, порывы в срок и между сроками (в фигурных скобках) и направление, откуда дует ветер: С - северный, СВ - северо-восточный, В - восточный, ЮВ - юго-восточный, Ю - южный, ЮЗ - юго-западный, З - западный, СЗ - северо-западный.
Видимость - горизонтальная дальность видимости в метрах или километрах. При видимости от 1 до 10 км при отсутствии осадков обычно наблюдается дымка, при ухудшении видимости до 1 км и менее - туман. В сухую погоду видимость может ухудшаться дымом, пылью или мглою.
Явления - указаны атмосферные явления, наблюдавшиеся в срок или в последний час перед сроком; фигурными скобками обозначены явления, наблюдавшиеся между сроками (за 1-3 часа до срока); квадратными скобками обозначены град или гололедные отложения с указанием их диаметра в мм.
Облачность - указаны через наклонную черту общая и нижняя облачность в баллах и высота нижней границы облаков в метрах; квадратными скобками обозначены формы облаков: Ci - перистые, Cs - перисто-слоистые, Cc - перисто-кучевые, Ac - высококучевые, As - высокослоистые, Sc - слоисто-кучевые, Ns - слоисто-дождевые, Cu - кучевые, Cb - кучево-дождевые. Подробнее классификацию облаков см. в Атласе облаков (PDF).
T - Температура воздуха - температура, измеренная на высоте 2 м над землей.
Td - Температура точки росы - температура, при понижении до которой содержащийся в воздухе водяной пар достигнет насыщения.
f - Относительная влажность воздуха - влажноcть воздуха, измеренная на высоте 2 м над землей.
Te - Эффективная температура - температура, которую ощущает одетый по сезону человек в тени. Характеристика душности погоды. При расчете учитывается влияние влажности воздуха и скорости ветра на теплоощущения человека.
Tes - Эффективная температура на солнце - температура, которую ощущает человек, с поправкой на солнечный нагрев. Характеристика знойности погоды. Зависит от высоты солнца над горизонтом, облачности и скорости ветра. Ночью, в пасмурную погоду, а также при ветре 12 м/с и более поправка равна нулю.
P - Атмосферное давление - приведенное к уровню моря атмосферное давление.
Po - Атмосферное давление - измеренное на уровне метеостанции атмосферное давление.
Tmin - Минимальная температура - минимум температуры воздуха на высоте 2 м над землей.
Tmax - Максимальная температура - максимум температуры воздуха на высоте 2 м над землей.
R - Количество осадков - Количество выпавших осадков за период времени, мм. При наведении курсора мыши на число - период времени, за который выпало указанное количество осадков.
R24 - Количество осадков - Количество выпавших осадков за 24 часа, мм.
S - Снежный покров - Высота снежного покрова, см. При наведении курсора мыши на число - состояние снежного покрова и степень покрытия местности в баллах.